Volver al catálogo

TITAN 3C TRANSTAGE DEB

ActivoLEO
NORAD 4907·DEBRIS·🇺🇸 United States

Lanzado Oct 15, 1965 desde Cape Canaveral Space Force Station

Loading…

Próximos Pases

TLE

Source: Space-Track
1 04907U 65082SV  26218.69891920  .00000346  00000-0  63056-4 0  9991
2 04907  32.4850  83.5193 0045639  24.8187 335.4647 14.60587649225618

Sigue TITAN 3C TRANSTAGE DEB en tiempo real con AllMySat

Download on the App Store